FW1286 Weather Reports


time (UTC)temp
C
wind
direction
speed
KPH
gust
KPH
rain 1hr
cm
rain 24hr
cm
rain mn
cm
humidity
%
barometer
mb
20260506103913 23 148 0.0 4.8 0.00 0.03 0.03 95 1007.8
20260506102852 23 148 0.0 4.8 0.00 0.03 0.03 94 1007.8
20260506101858 23 148 0.0 1.6 0.00 0.00 0.00 94 1007.5
20260506100907 23 148 0.0 1.6 0.00 0.00 0.00 93 1007.6
20260506095912 23 148 0.0 0.0 0.00 0.00 0.00 93 1007.5
20260506094912 23 148 0.0 1.6 0.00 0.00 0.00 93 1007.2
20260506093849 23 148 0.0 0.0 0.00 0.00 0.00 92 1007.2
20260506092844 23 148 0.0 0.0 0.00 0.00 0.00 92 1007.1
20260506091828 23 103 1.6 6.4 0.00 0.00 0.00 92 1006.8
20260506090758 23 136 0.0 8.0 0.00 0.00 0.00 91 1006.8
20260506083523 23 138 3.2 16.1 0.00 0.00 0.00 91 1006.6
20260506082449 23 136 4.8 14.5 0.00 0.00 0.00 91 1006.6
20260506081452 23 121 4.8 16.1 0.00 0.00 0.00 91 1006.6
20260506080426 23 150 6.4 16.1 0.00 0.00 0.00 91 1006.6
20260506073400 23 175 8.0 16.1 0.00 0.00 0.00 91 1006.7
20260506072404 23 126 6.4 16.1 0.00 0.00 0.00 91 1006.9
20260506071404 23 149 4.8 16.1 0.00 0.00 0.00 91 1007.0
20260506070411 23 211 6.4 17.7 0.00 0.00 0.00 91 1006.8
20260506062258 23 110 8.0 24.1 0.00 0.00 0.00 91 1006.5
20260506061230 23 94 8.0 19.3 0.00 0.00 0.00 91 1006.6
20260506060157 23 123 8.0 22.5 0.00 0.00 0.00 91 1006.4
20260506050932 23 104 8.0 19.3 0.00 0.00 0.00 91 1006.6
20260506044943 23 132 6.4 12.9 0.00 0.00 0.00 91 1006.5
20260506043946 23 107 4.8 12.9 0.00 0.00 0.00 91 1006.6
20260506042954 23 101 4.8 12.9 0.00 0.00 0.00 90 1006.6
20260506042015 23 115 3.2 12.9 0.00 0.00 0.00 90 1006.5
20260506041038 23 96 3.2 8.0 0.00 0.00 0.00 89 1006.4
20260506040053 24 105 1.6 6.4 0.00 0.00 0.00 89 1006.4
20260506035035 24 113 3.2 8.0 0.00 0.00 0.00 89 1006.6
20260506034027 24 140 1.6 8.0 0.00 0.00 0.00 89 1006.2
20260506033015 24 130 3.2 6.4 0.00 0.00 0.00 88 1005.9
20260506032017 24 119 1.6 6.4 0.00 0.00 0.00 88 1006.2
20260506031008 24 84 0.0 8.0 0.00 0.00 0.00 87 1006.1
20260506025953 24 91 3.2 8.0 0.00 0.00 0.00 87 1005.6
20260506024954 24 84 1.6 8.0 0.00 0.00 0.00 87 1005.7
20260506023948 25 89 1.6 6.4 0.00 0.00 0.00 86 1005.4
20260506022938 25 126 1.6 6.4 0.00 0.00 0.00 85 1005.4
20260506021938 25 105 1.6 6.4 0.00 0.00 0.00 84 1005.2
20260506020914 25 85 1.6 8.0 0.00 0.00 0.00 83 1005.0
20260506015846 25 113 1.6 8.0 0.00 0.00 0.00 83 1004.9
20260506014821 25 128 3.2 8.0 0.00 0.00 0.00 82 1004.7
20260506012709 26 124 6.4 12.9 0.00 0.00 0.00 81 1004.4
20260506011648 26 120 4.8 12.9 0.00 0.00 0.00 80 1004.4
20260506010631 26 122 6.4 12.9 0.00 0.00 0.00 79 1004.5
20260506005623 27 113 6.4 16.1 0.00 0.00 0.00 79 1004.3
20260506004636 27 114 6.4 19.3 0.00 0.00 0.00 78 1004.3
20260506003609 27 113 8.0 19.3 0.00 0.00 0.00 77 1004.3
20260506002601 27 103 6.4 14.5 0.00 0.00 0.00 76 1004.3
20260506001532 28 127 8.0 17.7 0.00 0.00 0.00 76 1004.3
20260506000517 27 105 6.4 19.3 0.00 0.00 0.00 77 1004.5
20260505235511 27 127 8.0 19.3 0.00 0.00 0.00 76 1004.4
20260505234524 28 121 8.0 14.5 0.00 0.00 0.00 75 1004.5
20260505232358 28 117 8.0 17.7 0.00 0.00 0.00 74 1004.2
20260505231414 28 102 8.0 16.1 0.00 0.00 0.00 74 1004.1
20260505230357 28 109 9.7 16.1 0.00 0.00 0.00 73 1003.9
20260505225349 29 118 4.8 17.7 0.00 0.00 0.00 73 1003.9
20260505224407 29 114 8.0 17.7 0.00 0.00 0.00 73 1003.9
20260505223429 29 104 8.0 16.1 0.00 0.00 0.00 72 1003.8
20260505222413 29 105 8.0 17.7 0.00 0.00 0.00 72 1003.9
20260505221351 29 133 8.0 20.9 0.00 0.00 0.00 71 1004.0
20260505220327 30 117 9.7 20.9 0.00 0.00 0.00 71 1003.8
20260505215338 30 147 9.7 17.7 0.00 0.00 0.00 69 1004.0
20260505214351 30 128 6.4 14.5 0.00 0.00 0.00 69 1004.2
20260505213359 30 74 8.0 17.7 0.00 0.00 0.00 70 1004.1
20260505212344 30 141 9.7 19.3 0.00 0.00 0.00 69 1004.1
20260505211321 30 119 9.7 19.3 0.00 0.00 0.00 70 1004.2
20260505210321 30 104 9.7 17.7 0.00 0.00 0.00 70 1004.4
20260505205311 30 134 8.0 19.3 0.00 0.00 0.00 71 1004.8
20260505204322 30 98 9.7 22.5 0.00 0.00 0.00 70 1004.7
20260505203313 29 114 8.0 22.5 0.00 0.00 0.00 71 1004.8
20260505202258 29 84 11.3 20.9 0.00 0.00 0.00 70 1004.9
20260505201313 29 115 9.7 24.1 0.00 0.00 0.00 71 1005.0
20260505200322 28 148 8.0 24.1 0.00 0.00 0.00 73 1005.5
20260505195329 28 166 9.7 20.9 0.00 0.00 0.00 72 1005.4
20260505194354 28 92 8.0 20.9 0.00 0.00 0.00 72 1005.4
20260505193404 28 107 9.7 20.9 0.00 0.00 0.00 73 1005.5
20260505192408 28 163 9.7 20.9 0.00 0.00 0.00 73 1005.6
20260505191421 28 96 9.7 20.9 0.00 0.00 0.00 73 1005.7
20260505190348 28 146 9.7 20.9 0.00 0.00 0.00 75 1005.9
20260505184227 27 112 11.3 30.6 0.00 0.00 0.00 77 1006.2
20260505183212 26 163 14.5 30.6 0.00 0.00 0.00 76 1006.3
20260505182215 26 158 12.9 27.4 0.00 0.00 0.00 78 1006.5
20260505181213 26 110 12.9 27.4 0.00 0.00 0.00 78 1006.7
20260505180222 25 122 11.3 29.0 0.00 0.00 0.00 80 1006.9
20260505175246 25 184 11.3 29.0 0.00 0.00 0.00 80 1006.9
20260505174221 25 138 11.3 24.1 0.00 0.00 0.00 81 1007.0
20260505173233 25 189 12.9 29.0 0.00 0.00 0.00 81 1007.2
20260505172213 24 189 14.5 29.0 0.00 0.00 0.00 83 1007.2
20260505171229 24 187 14.5 27.4 0.00 0.00 0.00 84 1007.3
20260505170157 23 155 12.9 29.0 0.00 0.00 0.00 85 1007.2
20260505165124 23 138 16.1 29.0 0.00 0.00 0.00 86 1007.3
20260505164104 23 187 12.9 29.0 0.00 0.00 0.00 87 1007.3
20260505163049 23 175 14.5 29.0 0.00 0.00 0.00 87 1007.4
20260505162050 23 182 11.3 27.4 0.00 0.00 0.00 87 1007.5
20260505161115 22 145 11.3 27.4 0.00 0.00 0.00 88 1007.4
20260505152946 22 119 8.0 17.7 0.00 0.00 0.00 89 1007.1
20260505151921 22 126 8.0 16.1 0.00 0.00 0.00 89 1007.3
20260505124616 21 180 8.0 19.3 0.00 0.00 0.00 90 1006.1
20260505123602 21 180 6.4 17.7 0.00 0.00 0.00 91 1006.1
20260505122604 21 119 8.0 17.7 0.00 0.00 0.00 90 1006.0
20260505121540 21 167 8.0 17.7 0.00 0.00 0.00 90 1005.6
20260505120557 21 147 6.4 16.1 0.00 0.00 0.00 91 1005.5
20260505115543 21 114 6.4 16.1 0.00 0.00 0.00 90 1005.4
20260505114512 21 148 6.4 16.1 0.00 0.00 0.00 90 1005.3
20260505113533 21 194 6.4 16.1 0.00 0.00 0.00 90 1005.3
20260505112524 21 175 6.4 16.1 0.00 0.00 0.00 90 1005.3
20260505111457 21 140 8.0 19.3 0.00 0.00 0.00 90 1005.4
20260505110446 21 129 8.0 19.3 0.00 0.00 0.00 90 1005.4